K5DLF-13 Weather Reports


Display with metric or nautical units.
time (UTC)temp
F
wind
direction
speed
MPH
gust
MPH
rain 1hr
in
rain 24hr
in
rain mn
in
humidity
%
barometer
mb
20260510054946 76 94 0.0 0.0 0.00 0.00 0.00 91 1008.8
20260510054446 76 94 0.0 0.0 0.00 0.00 0.00 92 1008.8
20260510053946 76 94 0.0 0.0 0.00 0.00 0.00 91 1008.8
20260510053446 76 94 0.0 0.0 0.00 0.00 0.00 91 1008.9
20260510052946 76 94 0.0 0.0 0.00 0.00 0.00 91 1008.8
20260510052446 76 94 0.0 0.0 0.00 0.00 0.00 91 1008.8
20260510051946 77 94 0.0 0.0 0.00 0.00 0.00 91 1008.9
20260510051446 77 94 0.0 0.0 0.00 0.00 0.00 91 1009.0
20260510050946 77 94 1.0 0.0 0.00 0.00 0.00 91 1008.9
20260510050446 77 94 2.0 3.0 0.00 0.00 0.00 91 1009.0
20260510045946 77 94 2.0 4.0 0.00 0.00 0.00 91 1009.1
20260510045446 77 93 2.0 6.0 0.00 0.00 0.00 91 1009.1
20260510044946 77 76 2.0 4.0 0.00 0.00 0.00 91 1009.1
20260510044446 77 67 2.0 4.0 0.00 0.00 0.00 91 1009.1
20260510043946 77 46 2.0 3.0 0.00 0.00 0.00 91 1009.2
20260510043446 77 46 1.0 3.0 0.00 0.00 0.00 91 1009.1
20260510042946 77 45 0.0 3.0 0.00 0.00 0.00 91 1009.3
20260510042446 78 45 1.0 2.0 0.00 0.00 0.00 90 1009.3
20260510041946 78 45 1.0 2.0 0.00 0.00 0.00 90 1009.3
20260510041446 78 45 1.0 3.0 0.00 0.00 0.00 90 1009.3
20260510040946 78 45 2.0 4.0 0.00 0.00 0.00 90 1009.4
20260510040446 78 43 2.0 3.0 0.00 0.00 0.00 90 1009.4
20260510035946 78 43 2.0 3.0 0.00 0.00 0.00 90 1009.4
20260510035446 78 43 2.0 3.0 0.00 0.00 0.00 90 1009.2
20260510034946 78 43 1.0 4.0 0.00 0.00 0.00 90 1009.1
20260510034446 78 43 1.0 5.0 0.00 0.00 0.00 90 1009.0
20260510033946 78 40 1.0 2.0 0.00 0.00 0.00 90 1009.1
20260510033446 78 40 2.0 3.0 0.00 0.00 0.00 90 1009.2
20260510032946 78 40 2.0 3.0 0.00 0.00 0.00 90 1009.3
20260510032446 78 40 1.0 3.0 0.00 0.00 0.00 90 1009.5
20260510031946 78 40 1.0 3.0 0.00 0.00 0.00 90 1009.5
20260510031446 79 39 1.0 9.0 0.00 0.00 0.00 89 1009.3
20260510030946 79 172 0.0 5.0 0.00 0.00 0.00 89 1009.2
20260510030446 79 173 0.0 0.0 0.00 0.00 0.00 89 1009.1
20260510025946 79 175 1.0 2.0 0.00 0.00 0.00 88 1009.0
20260510025446 79 175 1.0 3.0 0.00 0.00 0.00 88 1009.0
20260510024946 79 175 1.0 2.0 0.00 0.00 0.00 88 1008.8
20260510024446 79 175 2.0 3.0 0.00 0.00 0.00 88 1008.7
20260510023946 79 184 1.0 4.0 0.00 0.00 0.00 88 1008.5
20260510023446 79 184 1.0 4.0 0.00 0.00 0.00 87 1008.4
20260510022946 79 185 0.0 2.0 0.00 0.00 0.00 86 1008.5
20260510022446 79 185 0.0 1.0 0.00 0.00 0.00 85 1008.3
20260510021946 79 185 0.0 0.0 0.00 0.00 0.00 84 1008.4
20260510021446 79 185 0.0 0.0 0.00 0.00 0.00 85 1008.1
20260510020946 79 185 0.0 0.0 0.00 0.00 0.00 85 1008.0
20260510020446 79 185 0.0 0.0 0.00 0.00 0.00 85 1007.8
20260510015947 79 185 0.0 0.0 0.00 0.00 0.00 85 1007.4
20260510015446 79 185 0.0 2.0 0.00 0.00 0.00 85 1007.2
20260510014946 79 185 0.0 1.0 0.00 0.00 0.00 85 1007.0
20260510014447 80 186 0.0 0.0 0.00 0.00 0.00 84 1007.1
20260510013947 80 186 0.0 0.0 0.00 0.00 0.00 84 1007.1
20260510013447 80 186 0.0 0.0 0.00 0.00 0.00 84 1007.1
20260510012947 80 186 0.0 0.0 0.00 0.00 0.00 83 1007.0
20260510012447 80 186 0.0 0.0 0.00 0.00 0.00 83 1006.9
20260510011947 80 186 0.0 0.0 0.00 0.00 0.00 82 1006.9
20260510011447 80 186 0.0 0.0 0.00 0.00 0.00 82 1006.5
20260510010947 80 186 0.0 2.0 0.00 0.00 0.00 81 1006.3
20260510010447 80 186 0.0 0.0 0.00 0.00 0.00 80 1006.0
20260510005947 81 186 0.0 0.0 0.00 0.00 0.00 79 1005.9
20260510005447 81 186 0.0 0.0 0.00 0.00 0.00 78 1005.9
20260510004947 82 186 0.0 0.0 0.00 0.00 0.00 77 1005.9
20260510004447 82 186 0.0 0.0 0.00 0.00 0.00 76 1006.1
20260510003947 83 186 1.0 0.0 0.00 0.00 0.00 75 1006.1
20260510003447 83 186 1.0 3.0 0.00 0.00 0.00 73 1006.1
20260510002947 83 186 1.0 3.0 0.00 0.00 0.00 72 1006.1
20260510002447 83 186 2.0 4.0 0.00 0.00 0.00 69 1006.2
20260510001947 84 190 1.0 4.0 0.00 0.00 0.00 66 1006.0
20260510001447 84 191 0.0 2.0 0.00 0.00 0.00 64 1005.9
20260510000947 85 191 1.0 3.0 0.00 0.00 0.00 63 1005.8
20260510000448 85 191 1.0 3.0 0.00 0.00 0.00 61 1005.8
20260509235947 86 191 0.0 2.0 0.00 0.00 0.00 60 1005.6
20260509235447 86 191 1.0 2.0 0.00 0.00 0.00 62 1005.5
20260509234947 86 191 1.0 3.0 0.00 0.00 0.00 58 1005.4
20260509234447 87 192 0.0 3.0 0.00 0.00 0.00 58 1005.5
20260509233947 87 194 1.0 0.0 0.00 0.00 0.00 61 1005.4
20260509233447 87 194 2.0 4.0 0.00 0.00 0.00 63 1005.4
20260509232947 87 198 1.0 4.0 0.00 0.00 0.00 66 1005.3
20260509232447 88 199 1.0 2.0 0.00 0.00 0.00 64 1005.4
20260509231947 88 199 0.0 3.0 0.00 0.00 0.00 60 1005.4
20260509231447 88 199 0.0 0.0 0.00 0.00 0.00 58 1005.4
20260509230947 89 199 0.0 3.0 0.00 0.00 0.00 62 1005.3
20260509230447 89 200 0.0 3.0 0.00 0.00 0.00 61 1005.2
20260509225947 90 200 0.0 0.0 0.00 0.00 0.00 59 1005.2
20260509225447 90 201 0.0 0.0 0.00 0.00 0.00 61 1005.1
20260509224947 91 201 0.0 0.0 0.00 0.00 0.00 62 1005.2
20260509224447 91 201 0.0 0.0 0.00 0.00 0.00 63 1005.2
20260509223947 91 201 0.0 0.0 0.00 0.00 0.00 60 1005.2
20260509223447 91 201 0.0 0.0 0.00 0.00 0.00 63 1005.2
20260509222947 91 201 0.0 0.0 0.00 0.00 0.00 62 1005.1
20260509222447 92 201 0.0 0.0 0.00 0.00 0.00 62 1005.2
20260509221947 92 201 0.0 0.0 0.00 0.00 0.00 61 1005.1
20260509221447 92 201 0.0 0.0 0.00 0.00 0.00 61 1005.1
20260509220947 93 201 0.0 1.0 0.00 0.00 0.00 60 1005.1
20260509220447 93 201 0.0 0.0 0.00 0.00 0.00 60 1005.0
20260509215947 94 201 1.0 4.0 0.00 0.00 0.00 58 1005.1
20260509215447 94 278 0.0 7.0 0.00 0.00 0.00 60 1005.0
20260509214947 94 217 0.0 0.0 0.00 0.00 0.00 59 1005.0
20260509214447 94 218 0.0 0.0 0.00 0.00 0.00 59 1005.1
20260509213947 94 217 0.0 0.0 0.00 0.00 0.00 60 1005.1
20260509213447 94 217 0.0 0.0 0.00 0.00 0.00 61 1004.9
20260509212947 94 218 0.0 0.0 0.00 0.00 0.00 60 1005.0
20260509212447 94 218 0.0 0.0 0.00 0.00 0.00 61 1005.0
20260509211947 94 218 0.0 0.0 0.00 0.00 0.00 63 1005.0
20260509211447 94 218 0.0 0.0 0.00 0.00 0.00 63 1005.0
20260509210947 94 218 0.0 0.0 0.00 0.00 0.00 60 1005.0
20260509210447 94 218 0.0 0.0 0.00 0.00 0.00 61 1005.1
20260509205947 94 218 0.0 0.0 0.00 0.00 0.00 62 1004.9
20260509205447 94 218 0.0 0.0 0.00 0.00 0.00 64 1005.0
20260509204947 94 218 0.0 0.0 0.00 0.00 0.00 62 1005.2
20260509204447 94 218 0.0 0.0 0.00 0.00 0.00 62 1005.2
20260509203947 94 218 0.0 0.0 0.00 0.00 0.00 60 1005.2
20260509203447 94 218 0.0 0.0 0.00 0.00 0.00 62 1005.3
20260509202947 94 218 0.0 0.0 0.00 0.00 0.00 60 1005.4
20260509202447 93 218 0.0 0.0 0.00 0.00 0.00 65 1005.5
20260509201947 93 218 0.0 0.0 0.00 0.00 0.00 65 1005.6
20260509201447 93 218 0.0 0.0 0.00 0.00 0.00 64 1005.6
20260509200947 93 218 0.0 1.0 0.00 0.00 0.00 66 1005.7
20260509200447 93 218 0.0 0.0 0.00 0.00 0.00 61 1005.8
20260509195947 93 218 0.0 0.0 0.00 0.00 0.00 63 1005.8
20260509195447 93 218 0.0 3.0 0.00 0.00 0.00 60 1005.9
20260509194947 94 217 0.0 0.0 0.00 0.00 0.00 62 1005.8
20260509194447 93 218 0.0 0.0 0.00 0.00 0.00 64 1005.9
20260509193947 93 217 0.0 0.0 0.00 0.00 0.00 65 1005.9
20260509193447 93 218 0.0 0.0 0.00 0.00 0.00 66 1005.7
20260509192947 93 307 0.0 0.0 0.00 0.00 0.00 66 1005.8
20260509192447 92 307 0.0 0.0 0.00 0.00 0.00 66 1006.0
20260509191947 92 307 0.0 3.0 0.00 0.00 0.00 60 1005.9
20260509191447 92 310 0.0 0.0 0.00 0.00 0.00 67 1006.1
20260509190947 92 310 0.0 0.0 0.00 0.00 0.00 66 1006.0
20260509190447 92 310 0.0 2.0 0.00 0.00 0.00 69 1006.0
20260509185947 91 310 0.0 0.0 0.00 0.00 0.00 70 1005.9
20260509185447 91 313 0.0 0.0 0.00 0.00 0.00 69 1006.1
20260509184947 90 313 0.0 0.0 0.00 0.00 0.00 72 1006.2
20260509184447 90 313 0.0 0.0 0.00 0.00 0.00 73 1006.3
20260509183947 89 312 0.0 0.0 0.00 0.00 0.00 72 1006.4
20260509183447 88 318 0.0 0.0 0.00 0.00 0.00 70 1006.5
20260509182947 88 20 0.0 0.0 0.00 0.00 0.00 73 1006.7
20260509182447 88 18 1.0 3.0 0.00 0.00 0.00 74 1006.7
20260509181947 87 22 1.0 5.0 0.00 0.00 0.00 73 1006.7
20260509181447 87 21 1.0 5.0 0.00 0.00 0.00 76 1006.9
20260509180947 86 348 0.0 4.0 0.00 0.00 0.00 78 1006.9
20260509180447 85 279 1.0 4.0 0.00 0.00 0.00 77 1007.3
20260509175947 85 279 1.0 4.0 0.00 0.00 0.00 77 1007.3
20260509175447 85 273 0.0 0.0 0.00 0.00 0.00 81 1007.3
20260509174947 84 272 1.0 3.0 0.00 0.00 0.00 80 1007.4
20260509174447 84 272 1.0 6.0 0.00 0.00 0.00 81 1007.6
20260509173947 84 205 0.0 0.0 0.00 0.00 0.00 84 1007.5
20260509173447 83 205 0.0 0.0 0.00 0.00 0.00 82 1007.5
20260509172947 83 205 0.0 4.0 0.00 0.00 0.00 82 1007.5
20260509172447 83 205 0.0 3.0 0.00 0.00 0.00 83 1007.7
20260509171947 83 205 0.0 3.0 0.00 0.00 0.00 84 1007.7
20260509171447 83 205 0.0 3.0 0.00 0.00 0.00 85 1007.8
20260509170947 83 205 0.0 3.0 0.00 0.00 0.00 85 1007.6
20260509170447 83 205 0.0 0.0 0.00 0.00 0.00 86 1007.8
20260509165947 82 205 1.0 2.0 0.00 0.00 0.00 87 1007.8
20260509165447 82 205 1.0 5.0 0.00 0.00 0.00 86 1007.8
20260509164947 82 204 1.0 6.0 0.00 0.00 0.00 87 1007.8
20260509164447 82 217 1.0 2.0 0.00 0.00 0.00 88 1007.8
20260509163947 82 217 1.0 5.0 0.00 0.00 0.00 88 1008.1
20260509163447 82 219 1.0 4.0 0.00 0.00 0.00 88 1008.1
20260509162947 82 234 0.0 0.0 0.00 0.00 0.00 89 1007.8
20260509162447 82 234 0.0 0.0 0.00 0.00 0.00 89 1007.9
20260509161947 81 234 0.0 0.0 0.00 0.00 0.00 90 1007.9
20260509161447 81 234 0.0 0.0 0.00 0.00 0.00 91 1007.9
20260509160947 81 234 0.0 0.0 0.00 0.00 0.00 92 1007.7
20260509160447 81 234 0.0 0.0 0.00 0.00 0.00 93 1007.6
20260509155947 81 234 0.0 0.0 0.00 0.00 0.00 94 1007.3
20260509155447 80 234 0.0 0.0 0.00 0.00 0.00 94 1007.7
20260509154948 80 234 0.0 0.0 0.00 0.00 0.00 94 1007.5
20260509154447 80 234 0.0 0.0 0.00 0.00 0.00 94 1007.4
20260509153948 79 234 0.0 0.0 0.00 0.00 0.00 95 1007.6
20260509153448 79 234 0.0 2.0 0.00 0.00 0.00 94 1007.4
20260509152948 78 234 0.0 2.0 0.00 0.00 0.00 95 1007.1
20260509152448 78 238 0.0 0.0 0.00 0.00 0.00 95 1007.3
20260509151948 78 238 0.0 0.0 0.00 0.00 0.00 95 1007.7
20260509151448 78 238 0.0 0.0 0.00 0.00 0.00 95 1007.8
20260509150948 77 238 0.0 0.0 0.00 0.00 0.00 95 1007.6
20260509150448 77 238 0.0 0.0 0.00 0.00 0.00 95 1007.1
20260509145948 77 242 0.0 0.0 0.00 0.00 0.00 95 1007.3
20260509145448 77 242 0.0 0.0 0.00 0.00 0.00 95 1007.8
20260509144948 77 242 0.0 0.0 0.00 0.00 0.00 95 1007.7
20260509144448 77 242 0.0 0.0 0.00 0.00 0.00 96 1007.3
20260509143948 77 242 0.0 0.0 0.00 0.00 0.00 96 1007.5
20260509143448 77 242 0.0 0.0 0.00 0.00 0.00 96 1007.6
20260509142948 77 242 0.0 0.0 0.00 0.00 0.00 96 1007.9
20260509142448 77 242 0.0 0.0 0.00 0.00 0.00 96 1008.0
20260509141948 78 242 0.0 0.0 0.00 0.00 0.00 96 1008.0
20260509141448 78 242 0.0 0.0 0.00 0.00 0.00 97 1007.9
20260509140948 77 242 0.0 0.0 0.00 0.00 0.00 97 1007.5
20260509140448 77 242 0.0 0.0 0.00 0.00 0.00 97 1007.5
20260509135948 77 344 0.0 0.0 0.00 0.00 0.00 97 1007.8
20260509135448 77 344 0.0 0.0 0.00 0.00 0.00 96 1007.9
20260509134948 77 344 0.0 0.0 0.00 0.00 0.00 96 1007.7
20260509134448 77 40 0.0 0.0 0.00 0.00 0.00 97 1007.3
20260509133948 77 40 0.0 0.0 0.00 0.00 0.00 97 1007.4
20260509133448 77 40 0.0 0.0 0.00 0.00 0.00 97 1007.4
20260509132948 77 40 0.0 0.0 0.00 0.00 0.00 97 1007.7
20260509132448 77 40 0.0 0.0 0.00 0.00 0.00 97 1007.8
20260509131948 77 40 0.0 0.0 0.00 0.00 0.00 97 1007.9
20260509131448 77 40 0.0 0.0 0.00 0.00 0.00 97 1007.7
20260509130948 77 40 0.0 0.0 0.00 0.00 0.00 97 1007.6
20260509130448 76 40 0.0 0.0 0.00 0.00 0.00 97 1007.7
20260509125948 76 40 0.0 0.0 0.00 0.00 0.00 97 1007.7
20260509125448 76 40 0.0 0.0 0.00 0.00 0.00 97 1007.7
20260509124948 76 40 0.0 0.0 0.00 0.00 0.00 96 1007.8
20260509124448 76 40 0.0 0.0 0.00 0.00 0.00 96 1007.8
20260509123948 76 40 0.0 0.0 0.00 0.00 0.00 96 1007.7
20260509123448 76 40 0.0 0.0 0.00 0.00 0.00 96 1007.7
20260509122948 75 40 0.0 0.0 0.00 0.00 0.00 96 1007.7
20260509122448 75 40 0.0 0.0 0.00 0.00 0.00 96 1007.6
20260509121948 75 40 0.0 0.0 0.00 0.00 0.00 96 1007.6
20260509121448 75 40 0.0 0.0 0.00 0.00 0.00 96 1007.7
20260509120948 75 40 0.0 0.0 0.00 0.00 0.00 96 1007.7
20260509120448 75 40 0.0 0.0 0.00 0.00 0.00 96 1007.7
20260509115948 75 40 0.0 0.0 0.00 0.00 0.00 96 1007.7
20260509115448 75 40 0.0 0.0 0.00 0.00 0.00 96 1007.6
20260509114948 75 40 0.0 0.0 0.00 0.00 0.00 96 1007.6
20260509114448 75 40 0.0 0.0 0.00 0.00 0.00 96 1007.6
20260509113948 75 40 0.0 0.0 0.00 0.00 0.00 96 1007.6
20260509113448 75 40 0.0 0.0 0.00 0.00 0.00 96 1007.6
20260509112948 75 40 0.0 0.0 0.00 0.00 0.00 96 1007.5
20260509112448 75 40 0.0 0.0 0.00 0.00 0.00 96 1007.3
20260509111948 75 40 0.0 0.0 0.00 0.00 0.00 96 1007.4
20260509111448 75 40 0.0 0.0 0.00 0.00 0.00 96 1007.4
20260509110948 75 40 0.0 0.0 0.00 0.00 0.00 96 1007.5
20260509110448 75 40 0.0 0.0 0.00 0.00 0.00 96 1007.4
20260509105948 75 40 0.0 0.0 0.00 0.00 0.00 96 1007.1
20260509105448 75 40 0.0 0.0 0.00 0.00 0.00 96 1006.9
20260509104948 75 40 0.0 0.0 0.00 0.00 0.00 96 1007.0
20260509104448 75 40 0.0 0.0 0.00 0.00 0.00 96 1006.9
20260509103948 75 40 0.0 0.0 0.00 0.00 0.00 96 1006.9
20260509103448 75 40 0.0 0.0 0.00 0.00 0.00 96 1006.9
20260509102948 75 40 0.0 0.0 0.00 0.00 0.00 96 1006.9
20260509102448 75 40 0.0 0.0 0.00 0.00 0.00 96 1007.1
20260509101948 75 40 0.0 0.0 0.00 0.00 0.00 96 1007.2
20260509101448 75 40 0.0 0.0 0.00 0.00 0.00 96 1006.8
20260509100948 75 40 0.0 0.0 0.00 0.00 0.00 96 1006.9
20260509100448 75 40 0.0 0.0 0.00 0.00 0.00 96 1007.0
20260509095948 75 40 0.0 0.0 0.00 0.00 0.00 96 1006.9
20260509095448 75 40 0.0 0.0 0.00 0.00 0.00 96 1006.8
20260509094948 75 40 0.0 0.0 0.00 0.00 0.00 96 1006.9
20260509094448 75 40 0.0 0.0 0.00 0.00 0.00 96 1006.7
20260509093948 75 40 0.0 0.0 0.00 0.00 0.00 96 1006.7
20260509093448 74 40 0.0 0.0 0.00 0.00 0.00 96 1006.8
20260509092948 74 40 0.0 0.0 0.00 0.00 0.00 96 1006.7
20260509092448 74 40 0.0 0.0 0.00 0.00 0.00 96 1006.4
20260509091948 74 40 0.0 0.0 0.00 0.00 0.00 96 1006.5
20260509091448 74 40 0.0 0.0 0.00 0.00 0.00 96 1006.4
20260509090948 74 40 0.0 0.0 0.00 0.00 0.00 96 1006.5
20260509090448 74 40 0.0 0.0 0.00 0.00 0.00 96 1006.5
20260509085948 74 40 0.0 0.0 0.00 0.00 0.00 96 1006.2
20260509085448 74 40 0.0 0.0 0.00 0.00 0.00 96 1006.2
20260509084948 74 40 0.0 0.0 0.00 0.00 0.00 96 1006.3
20260509084448 74 40 0.0 0.0 0.00 0.00 0.00 95 1006.4
20260509083948 73 40 0.0 0.0 0.00 0.00 0.00 95 1006.4
20260509083448 73 40 0.0 0.0 0.00 0.00 0.00 95 1006.4
20260509082948 73 40 0.0 0.0 0.00 0.00 0.00 95 1006.5
20260509082448 73 40 0.0 0.0 0.00 0.00 0.00 95 1006.7
20260509081948 73 40 0.0 0.0 0.00 0.00 0.00 95 1006.7
20260509081448 74 40 0.0 0.0 0.00 0.00 0.00 95 1006.8
20260509080948 73 40 0.0 0.0 0.00 0.00 0.00 95 1006.8
20260509080448 74 40 0.0 0.0 0.00 0.00 0.00 95 1006.8
20260509075948 74 40 0.0 0.0 0.00 0.00 0.00 95 1006.9
20260509075448 74 40 0.0 0.0 0.00 0.00 0.00 94 1007.0
20260509074948 74 40 0.0 0.0 0.00 0.00 0.00 94 1007.0
20260509074448 74 40 0.0 0.0 0.00 0.00 0.00 94 1007.1
20260509073948 74 40 0.0 0.0 0.00 0.00 0.00 94 1007.0
20260509073448 74 40 0.0 0.0 0.00 0.00 0.00 94 1007.1
20260509072948 74 40 0.0 0.0 0.00 0.00 0.00 95 1007.1
20260509072448 74 40 0.0 0.0 0.00 0.00 0.00 95 1007.2
20260509071948 74 40 0.0 0.0 0.00 0.00 0.00 95 1007.4
20260509071448 74 40 0.0 0.0 0.00 0.00 0.00 94 1007.3
20260509070948 74 40 0.0 0.0 0.00 0.00 0.00 94 1007.2
20260509070448 74 40 0.0 0.0 0.00 0.00 0.00 94 1007.1
20260509065948 74 40 0.0 0.0 0.00 0.00 0.00 94 1007.0
20260509065448 74 40 0.0 0.0 0.00 0.00 0.00 94 1007.1
20260509064948 74 40 0.0 0.0 0.00 0.00 0.00 94 1007.0
20260509064448 74 40 0.0 0.0 0.00 0.00 0.00 94 1007.0
20260509063948 74 40 0.0 0.0 0.00 0.00 0.00 94 1007.0
20260509063448 74 40 0.0 0.0 0.00 0.00 0.00 94 1007.1
20260509062948 75 40 0.0 0.0 0.00 0.00 0.00 94 1007.2
20260509062448 75 40 0.0 0.0 0.00 0.00 0.00 94 1007.2
20260509061948 75 40 0.0 0.0 0.00 0.00 0.00 94 1007.2
20260509061448 75 40 0.0 0.0 0.00 0.00 0.00 94 1007.2
20260509060948 75 40 0.0 0.0 0.00 0.00 0.00 94 1007.2
20260509060448 75 40 0.0 0.0 0.00 0.00 0.00 94 1007.2
20260509055949 75 40 0.0 0.0 0.00 0.00 0.00 94 1007.2
20260509055449 75 40 0.0 0.0 0.00 0.00 0.00 94 1007.2